Погода в Сомёнке

Россия / Новгородская область     58°03′42″N   32°47′09″E
темп.,
°C
ветер,
м/с
пор.,
м/с
влажн.,
%
обл.,
%
осадки,
мм/ч
давл.,
гПа
погр.,
м
16 мая, вс
вс1600:00+11ю239744 1.1 100549
03:00+10ю269825 1.1 1005139
06:00+11ююз399847 0.0 1006340
09:00+14юз478896 0.0 1008562
12:00+17зюз4670100 0.1 10091146
15:00+18з4570100 0.4 10101161
18:00+18зюз357031 0.3 1011814
21:00+13ююз11925 0.5 101211
17 мая, пн
пн1700:00+12вюв119483 0.0 101310
03:00+11юв23965 0.0 101451
06:00+12вюв269135 0.0 1014131
09:00+19юв366398 0.0 1014580
12:00+22юв4750100 0.0 10131742
15:00+22юв4650100 0.0 10111602
18:00+22вюв485599 0.0 10101397
21:00+18вюв5147393 0.2 1008586
18 мая, вт
вт1800:00+17вюв51684100 0.2 1007462
03:00+16вюв4129394 0.2 1006320
06:00+16вюв41290100 0.0 1005396
09:00+21юв51068100 0.0 1004669
12:00+26юв61247100 0.0 10031772
15:00+27юв5114896 0.0 10022135
18:00+23ююв61461100 0.2 10021693
21:00+20юв61569100 0.4 10031415
19 мая, ср
ср1900:00+18юв5156342 0.1 10031210
03:00+16ююв411795 0.1 1002644
06:00+15ююв4118726 0.0 1003533
09:00+19ююв4866100 0.0 1004950
12:00+22ю585698 0.2 10041756
15:00+20ююв3772100 0.9 1003387
18:00+18ююз138497 4.4 1003367
21:00+15всв2294100 6.2 100344
20 мая, чт
чт2000:00+13всв2797100 0.0 1001152
03:00+14в3997100 0.2 1000370
06:00+14в289799 0.3 999340
09:00+16юв4887100 0.6 998964
12:00+18ююв587173 0.6 9991353
15:00+16юз367694 1.5 999669
18:00+12зюз5792100 1.7 1001745
21:00+9зюз51096100 1.8 10041085